Previsão horária em Abanosimovka

Hoje, 17 Abril, Sábado

Tempo Temperatura Precipitação Vento Pressão Humidade
00:00 +12°C° 0 mm 2 m/s 751 mmHg 68%
01:00 +12°C° 0 mm 2 m/s 751 mmHg 69%
02:00 +11°C° 0 mm 1 m/s 750 mmHg 69%
03:00 +11°C° 0 mm 1 m/s 750 mmHg 69%
04:00 +10°C° 0 mm 2 m/s 750 mmHg 74%
05:00 +10°C° 0 mm 2 m/s 750 mmHg 80%
06:00 +9°C° 0 mm 2 m/s 750 mmHg 85%
07:00 +10°C° 0.2 mm 2 m/s 750 mmHg 81%
08:00 +12°C° 0.2 mm 2 m/s 750 mmHg 77%
09:00 +12°C° 0.2 mm 3 m/s 750 mmHg 74%
10:00 +12°C° 0.2 mm 3 m/s 750 mmHg 71%
11:00 +13°C° 0.2 mm 3 m/s 750 mmHg 69%
12:00 +13°C° 0.2 mm 3 m/s 750 mmHg 66%
13:00 +13°C° 1 mm 2 m/s 750 mmHg 72%
14:00 +12°C° 1 mm 2 m/s 750 mmHg 78%
15:00 +10°C° 1 mm 2 m/s 750 mmHg 84%
16:00 +10°C° 1.5 mm 2 m/s 750 mmHg 83%
17:00 +10°C° 1.5 mm 2 m/s 750 mmHg 83%
18:00 +9°C° 1.5 mm 2 m/s 750 mmHg 82%
19:00 +9°C° 0 mm 2 m/s 751 mmHg 84%
20:00 +9°C° 0 mm 1 m/s 751 mmHg 85%
21:00 +9°C° 0 mm 1 m/s 751 mmHg 87%
22:00 +9°C° 0 mm 1 m/s 751 mmHg 88%
23:00 +8°C° 0 mm 1 m/s 751 mmHg 88%

Amanhã, 18 Abril, Domingo

Tempo Temperatura Precipitação Vento Pressão Humidade
00:00 +8°C° 0 mm 1 m/s 751 mmHg 89%
01:00 +8°C° 0 mm 1 m/s 751 mmHg 89%
02:00 +6°C° 0 mm 2 m/s 751 mmHg 89%
03:00 +6°C° 0 mm 2 m/s 751 mmHg 90%
04:00 +6°C° 0 mm 2 m/s 751 mmHg 90%
05:00 +6°C° 0 mm 2 m/s 751 mmHg 90%
06:00 +5°C° 0 mm 2 m/s 751 mmHg 90%
07:00 +7°C° 0 mm 2 m/s 751 mmHg 83%
08:00 +8°C° 0 mm 2 m/s 751 mmHg 77%
09:00 +9°C° 0 mm 2 m/s 752 mmHg 70%
10:00 +10°C° 0 mm 2 m/s 752 mmHg 65%
11:00 +12°C° 0 mm 2 m/s 752 mmHg 59%
12:00 +11°C° 0 mm 3 m/s 752 mmHg 53%
13:00 +11°C° 0 mm 3 m/s 752 mmHg 53%
14:00 +11°C° 0 mm 3 m/s 752 mmHg 52%
15:00 +11°C° 0 mm 3 m/s 752 mmHg 52%
16:00 +12°C° 0 mm 2 m/s 752 mmHg 54%
17:00 +12°C° 0 mm 2 m/s 752 mmHg 57%
18:00 +12°C° 0 mm 1 m/s 752 mmHg 59%
19:00 +11°C° 0 mm 1 m/s 752 mmHg 59%
20:00 +11°C° 0 mm 1 m/s 752 mmHg 58%
21:00 +11°C° 0 mm 1 m/s 752 mmHg 58%
22:00 +10°C° 0 mm 1 m/s 752 mmHg 59%
23:00 +10°C° 0 mm 1 m/s 752 mmHg 61%

Depois de amanhã, 19 Abril, Segunda-feira

Tempo Temperatura Precipitação Vento Pressão Humidade
00:00 +9°C° 0 mm 1 m/s 752 mmHg 62%
01:00 +9°C° 0 mm 1 m/s 752 mmHg 64%
02:00 +8°C° 0 mm 1 m/s 752 mmHg 66%
03:00 +8°C° 0 mm 1 m/s 752 mmHg 68%
04:00 +8°C° 0 mm 1 m/s 752 mmHg 71%
05:00 +7°C° 0 mm 1 m/s 752 mmHg 74%
06:00 +6°C° 0 mm 2 m/s 752 mmHg 77%
07:00 +8°C° 0 mm 2 m/s 752 mmHg 73%
08:00 +9°C° 0 mm 2 m/s 751 mmHg 69%
09:00 +11°C° 0 mm 3 m/s 751 mmHg 66%
10:00 +12°C° 0.3 mm 3 m/s 751 mmHg 62%
11:00 +13°C° 0.3 mm 3 m/s 751 mmHg 58%
12:00 +14°C° 0.3 mm 4 m/s 750 mmHg 54%
13:00 +14°C° 0.4 mm 4 m/s 750 mmHg 53%
14:00 +14°C° 0.4 mm 4 m/s 750 mmHg 51%
15:00 +15°C° 0.4 mm 5 m/s 750 mmHg 49%
16:00 +13°C° 0.3 mm 5 m/s 750 mmHg 58%
17:00 +11°C° 0.3 mm 6 m/s 750 mmHg 68%
18:00 +10°C° 0.3 mm 7 m/s 750 mmHg 77%
19:00 +9°C° 0.4 mm 6 m/s 750 mmHg 79%
20:00 +8°C° 0.4 mm 6 m/s 750 mmHg 82%
21:00 +8°C° 0.4 mm 6 m/s 750 mmHg 84%
22:00 +7°C° 0.5 mm 6 m/s 750 mmHg 85%
23:00 +7°C° 0.5 mm 6 m/s 750 mmHg 86%

20 Abril, Terça-feira

Tempo Temperatura Precipitação Vento Pressão Humidade
00:00 +7°C° 0.5 mm 6 m/s 749 mmHg 88%
01:00 +6°C° 0.6 mm 7 m/s 749 mmHg 89%
02:00 +6°C° 0.6 mm 7 m/s 749 mmHg 89%
03:00 +5°C° 0.6 mm 7 m/s 748 mmHg 90%
04:00 +5°C° 0.2 mm 7 m/s 748 mmHg 91%
05:00 +5°C° 0.2 mm 7 m/s 748 mmHg 91%
06:00 +5°C° 0.2 mm 7 m/s 748 mmHg 91%
07:00 +5°C° 0.1 mm 8 m/s 747 mmHg 91%
08:00 +5°C° 0.1 mm 8 m/s 747 mmHg 90%
09:00 +5°C° 0.1 mm 8 m/s 747 mmHg 90%
10:00 +5°C° 0.1 mm 9 m/s 746 mmHg 90%
11:00 +5°C° 0.1 mm 9 m/s 746 mmHg 89%
12:00 +5°C° 0.1 mm 10 m/s 745 mmHg 89%
13:00 +5°C° 2.2 mm 10 m/s 745 mmHg 89%
14:00 +4°C° 2.2 mm 11 m/s 744 mmHg 90%
15:00 +4°C° 2.2 mm 11 m/s 743 mmHg 91%
16:00 +5°C° 1.9 mm 12 m/s 743 mmHg 91%
17:00 +5°C° 1.9 mm 12 m/s 742 mmHg 90%
18:00 +7°C° 1.9 mm 13 m/s 741 mmHg 90%
19:00 +7°C° 0.4 mm 12 m/s 741 mmHg 90%
20:00 +8°C° 0.4 mm 12 m/s 741 mmHg 90%
21:00 +8°C° 0.4 mm 12 m/s 740 mmHg 90%
22:00 +9°C° 0.5 mm 11 m/s 740 mmHg 89%
23:00 +9°C° 0.5 mm 10 m/s 740 mmHg 88%

21 Abril, Quarta-feira

Tempo Temperatura Precipitação Vento Pressão Humidade
00:00 +10°C° 0.5 mm 9 m/s 740 mmHg 87%
01:00 +10°C° 0.2 mm 9 m/s 740 mmHg 86%
02:00 +8°C° 0.2 mm 10 m/s 740 mmHg 84%
03:00 +8°C° 0.2 mm 10 m/s 740 mmHg 83%
04:00 +8°C° 0.5 mm 10 m/s 740 mmHg 84%
05:00 +7°C° 0.5 mm 9 m/s 740 mmHg 85%
06:00 +7°C° 0.5 mm 9 m/s 740 mmHg 85%
07:00 +7°C° 0.1 mm 9 m/s 741 mmHg 86%
08:00 +7°C° 0.1 mm 8 m/s 742 mmHg 87%
09:00 +7°C° 0.1 mm 8 m/s 743 mmHg 88%
10:00 +8°C° 0.1 mm 7 m/s 744 mmHg 83%
11:00 +8°C° 0.1 mm 7 m/s 745 mmHg 79%
12:00 +7°C° 0.1 mm 6 m/s 746 mmHg 75%
13:00 +8°C° 0 mm 6 m/s 747 mmHg 72%
14:00 +9°C° 0 mm 6 m/s 747 mmHg 69%
15:00 +10°C° 0 mm 6 m/s 747 mmHg 66%
16:00 +10°C° 0 mm 5 m/s 748 mmHg 66%
17:00 +11°C° 0 mm 4 m/s 748 mmHg 65%
18:00 +11°C° 0 mm 4 m/s 749 mmHg 65%
19:00 +10°C° 0 mm 4 m/s 749 mmHg 71%
20:00 +8°C° 0 mm 4 m/s 749 mmHg 76%
21:00 +7°C° 0 mm 4 m/s 750 mmHg 82%
22:00 +7°C° 0.1 mm 4 m/s 750 mmHg 85%
23:00 +7°C° 0.1 mm 4 m/s 750 mmHg 87%

22 Abril, Quinta-feira

Tempo Temperatura Precipitação Vento Pressão Humidade
00:00 +6°C° 0.1 mm 4 m/s 750 mmHg 89%
01:00 +7°C° 0 mm 3 m/s 750 mmHg 90%
02:00 +5°C° 0 mm 3 m/s 751 mmHg 90%
03:00 +5°C° 0 mm 3 m/s 751 mmHg 91%
04:00 +5°C° 0 mm 3 m/s 751 mmHg 91%
05:00 +6°C° 0 mm 2 m/s 752 mmHg 91%
06:00 +6°C° 0 mm 2 m/s 752 mmHg 92%
07:00 +7°C° 0 mm 3 m/s 753 mmHg 83%
08:00 +9°C° 0 mm 3 m/s 753 mmHg 74%
09:00 +11°C° 0 mm 4 m/s 753 mmHg 65%
10:00 +12°C° 0 mm 4 m/s 754 mmHg 60%
11:00 +13°C° 0 mm 4 m/s 754 mmHg 55%
12:00 +14°C° 0 mm 4 m/s 754 mmHg 50%
13:00 +14°C° 0 mm 4 m/s 754 mmHg 50%
14:00 +14°C° 0 mm 3 m/s 754 mmHg 50%
15:00 +16°C° 0 mm 3 m/s 754 mmHg 51%
16:00 +14°C° 0 mm 3 m/s 754 mmHg 54%
17:00 +15°C° 0 mm 2 m/s 754 mmHg 58%
18:00 +15°C° 0 mm 2 m/s 754 mmHg 61%
19:00 +14°C° 0 mm 2 m/s 754 mmHg 64%
20:00 +13°C° 0 mm 2 m/s 755 mmHg 66%
21:00 +12°C° 0 mm 2 m/s 755 mmHg 69%
22:00 +10°C° 0 mm 2 m/s 755 mmHg 70%
23:00 +11°C° 0 mm 1 m/s 755 mmHg 72%
Mostrar mais